contact:dominique.lefevre@mio.osupytheas.fr, maurice.libes@osupytheas.fr, didier.mallarino@osupytheas.fr
Project:EMSO http://www.emso-fr.org/EMSO-France
Depth: 2436.0 m
Title:EMSO Ligure Ouest : Data MII capteur MICROCAT
DateTime_Computer,Latitude,Longitude,Temperature,Conductivity,Pressure,DateTime_Instrument
DateTime_Computer,Latitude,Longitude,degC,S m-1,dbar,DateTime_Instrument
2023-06-04T00:00:06Z,42.805,6.029,13.3089,4.60100,2470.693,2023-6-04T02:02:19Z
2023-06-04T00:03:09Z,42.805,6.029,13.3098,4.60114,2470.73,2023-6-04T02:05:22Z
2023-06-04T00:06:12Z,42.805,6.029,13.3105,4.60112,2470.661,2023-6-04T02:08:25Z
2023-06-04T00:09:15Z,42.805,6.029,13.3084,4.60114,2470.684,2023-6-04T02:11:29Z
2023-06-04T00:12:18Z,42.805,6.029,13.3076,4.60119,2470.684,2023-6-04T02:14:32Z
2023-06-04T00:15:22Z,42.805,6.029,13.3091,4.60114,2470.693,2023-6-04T02:17:35Z
2023-06-04T00:18:25Z,42.805,6.029,13.3086,4.60114,2470.684,2023-6-04T02:20:38Z
2023-06-04T00:21:28Z,42.805,6.029,13.3093,4.60108,2470.693,2023-6-04T02:23:41Z
2023-06-04T00:24:31Z,42.805,6.029,13.3098,4.60118,2470.684,2023-6-04T02:26:44Z
2023-06-04T00:27:34Z,42.805,6.029,13.3112,4.60108,2470.693,2023-6-04T02:29:47Z
2023-06-04T00:30:37Z,42.805,6.029,13.3078,4.60113,2470.684,2023-6-04T02:32:50Z
2023-06-04T00:33:40Z,42.805,6.029,13.3098,4.60099,2470.707,2023-6-04T02:35:53Z
2023-06-04T00:36:43Z,42.805,6.029,13.3090,4.60124,2470.67,2023-6-04T02:38:56Z
2023-06-04T00:39:46Z,42.805,6.029,13.3083,4.60107,2470.661,2023-6-04T02:41:59Z
2023-06-04T00:42:49Z,42.805,6.029,13.3089,4.60119,2470.646,2023-6-04T02:45:02Z
2023-06-04T00:45:52Z,42.805,6.029,13.3081,4.60110,2470.67,2023-6-04T02:48:06Z
2023-06-04T00:48:55Z,42.805,6.029,13.3084,4.60129,2470.684,2023-6-04T02:51:09Z
2023-06-04T00:51:59Z,42.805,6.029,13.3093,4.60104,2470.67,2023-6-04T02:54:12Z
2023-06-04T00:55:02Z,42.805,6.029,13.3085,4.60117,2470.646,2023-6-04T02:57:15Z
2023-06-04T00:58:05Z,42.805,6.029,13.3085,4.60121,2470.661,2023-6-04T03:00:18Z
2023-06-04T01:01:08Z,42.805,6.029,13.3121,4.60116,2470.684,2023-6-04T03:03:21Z
2023-06-04T01:04:11Z,42.805,6.029,13.3089,4.60157,2470.661,2023-6-04T03:06:24Z
2023-06-04T01:07:14Z,42.805,6.029,13.3091,4.60132,2470.67,2023-6-04T03:09:27Z
2023-06-04T01:10:17Z,42.805,6.029,13.3080,4.60127,2470.661,2023-6-04T03:12:30Z
2023-06-04T01:13:20Z,42.805,6.029,13.3090,4.60130,2470.661,2023-6-04T03:15:33Z
2023-06-04T01:16:23Z,42.805,6.029,13.3090,4.60135,2470.646,2023-6-04T03:18:36Z
2023-06-04T01:19:26Z,42.805,6.029,13.3088,4.60126,2470.661,2023-6-04T03:21:39Z
2023-06-04T01:22:29Z,42.805,6.029,13.3085,4.60107,2470.684,2023-6-04T03:24:42Z
2023-06-04T01:25:32Z,42.805,6.029,13.3095,4.60117,2470.684,2023-6-04T03:27:46Z
2023-06-04T01:28:35Z,42.805,6.029,13.3083,4.60102,2470.646,2023-6-04T03:30:49Z
2023-06-04T01:31:39Z,42.805,6.029,13.3074,4.60110,2470.646,2023-6-04T03:33:52Z
2023-06-04T01:34:42Z,42.805,6.029,13.3099,4.60104,2470.707,2023-6-04T03:36:55Z
2023-06-04T01:37:45Z,42.805,6.029,13.3091,4.60119,2470.67,2023-6-04T03:39:58Z
2023-06-04T01:40:48Z,42.805,6.029,13.3098,4.60127,2470.661,2023-6-04T03:43:01Z
2023-06-04T01:43:51Z,42.805,6.029,13.3098,4.60139,2470.624,2023-6-04T03:46:04Z
2023-06-04T01:46:54Z,42.805,6.029,13.3092,4.60114,2470.624,2023-6-04T03:49:07Z
2023-06-04T01:49:57Z,42.805,6.029,13.3095,4.60122,2470.646,2023-6-04T03:52:10Z
2023-06-04T01:53:00Z,42.805,6.029,13.3091,4.60112,2470.67,2023-6-04T03:55:13Z
2023-06-04T01:56:03Z,42.805,6.029,13.3074,4.60110,2470.646,2023-6-04T03:58:16Z
2023-06-04T01:59:06Z,42.805,6.029,13.3075,4.60107,2470.624,2023-6-04T04:01:19Z
2023-06-04T02:02:09Z,42.805,6.029,13.3075,4.60108,2470.646,2023-6-04T04:04:22Z
2023-06-04T02:05:12Z,42.805,6.029,13.3078,4.60107,2470.624,2023-6-04T04:07:26Z
2023-06-04T02:08:15Z,42.805,6.029,13.3083,4.60105,2470.646,2023-6-04T04:10:29Z
2023-06-04T02:11:19Z,42.805,6.029,13.3078,4.60111,2470.684,2023-6-04T04:13:32Z
2023-06-04T02:14:22Z,42.805,6.029,13.3078,4.60138,2470.684,2023-6-04T04:16:35Z
2023-06-04T02:17:25Z,42.805,6.029,13.3076,4.60119,2470.661,2023-6-04T04:19:38Z
2023-06-04T02:20:28Z,42.805,6.029,13.3085,4.60123,2470.646,2023-6-04T04:22:41Z
2023-06-04T02:23:31Z,42.805,6.029,13.3084,4.60121,2470.624,2023-6-04T04:25:44Z
2023-06-04T02:26:34Z,42.805,6.029,13.3083,4.60115,2470.646,2023-6-04T04:28:47Z
2023-06-04T02:29:37Z,42.805,6.029,13.3065,4.60132,2470.637,2023-6-04T04:31:50Z
2023-06-04T02:32:40Z,42.805,6.029,13.3086,4.60125,2470.67,2023-6-04T04:34:53Z
2023-06-04T02:35:43Z,42.805,6.029,13.3076,4.60121,2470.684,2023-6-04T04:37:56Z
2023-06-04T02:38:46Z,42.805,6.029,13.3076,4.60114,2470.661,2023-6-04T04:40:59Z
2023-06-04T02:41:49Z,42.805,6.029,13.3094,4.60105,2470.67,2023-6-04T04:44:03Z
2023-06-04T02:44:52Z,42.805,6.029,13.3082,4.60126,2470.684,2023-6-04T04:47:06Z
2023-06-04T02:47:55Z,42.805,6.029,13.3072,4.60118,2470.67,2023-6-04T04:50:09Z
2023-06-04T02:50:59Z,42.805,6.029,13.3070,4.60129,2470.684,2023-6-04T04:53:12Z
2023-06-04T02:54:02Z,42.805,6.029,13.3080,4.60121,2470.661,2023-6-04T04:56:15Z
2023-06-04T02:57:05Z,42.805,6.029,13.3093,4.60124,2470.661,2023-6-04T04:59:18Z
2023-06-04T03:00:08Z,42.805,6.029,13.3080,4.60117,2470.646,2023-6-04T05:02:21Z
2023-06-04T03:03:11Z,42.805,6.029,13.3098,4.60119,2470.684,2023-6-04T05:05:24Z
2023-06-04T03:06:14Z,42.805,6.029,13.3105,4.60119,2470.707,2023-6-04T05:08:27Z
2023-06-04T03:09:17Z,42.805,6.029,13.3091,4.60122,2470.646,2023-6-04T05:11:30Z
2023-06-04T03:12:20Z,42.805,6.029,13.3081,4.60120,2470.67,2023-6-04T05:14:33Z
2023-06-04T03:15:23Z,42.805,6.029,13.3081,4.60116,2470.684,2023-6-04T05:17:36Z
2023-06-04T03:18:26Z,42.805,6.029,13.3078,4.60131,2470.684,2023-6-04T05:20:39Z
2023-06-04T03:21:29Z,42.805,6.029,13.3065,4.60112,2470.707,2023-6-04T05:23:42Z
2023-06-04T03:24:32Z,42.805,6.029,13.3063,4.60113,2470.707,2023-6-04T05:26:46Z
2023-06-04T03:27:36Z,42.805,6.029,13.3069,4.60112,2470.67,2023-6-04T05:29:49Z
2023-06-04T03:30:39Z,42.805,6.029,13.3084,4.60111,2470.707,2023-6-04T05:32:52Z
2023-06-04T03:33:42Z,42.805,6.029,13.3096,4.60110,2470.67,2023-6-04T05:35:55Z
2023-06-04T03:36:45Z,42.805,6.029,13.3085,4.60109,2470.693,2023-6-04T05:38:58Z
2023-06-04T03:39:48Z,42.805,6.029,13.3082,4.60102,2470.693,2023-6-04T05:42:01Z
2023-06-04T03:42:51Z,42.805,6.029,13.3092,4.60107,2470.684,2023-6-04T05:45:04Z
2023-06-04T03:45:54Z,42.805,6.029,13.3072,4.60111,2470.661,2023-6-04T05:48:07Z
2023-06-04T03:48:57Z,42.805,6.029,13.3067,4.60107,2470.693,2023-6-04T05:51:10Z
2023-06-04T03:52:00Z,42.805,6.029,13.3078,4.60108,2470.693,2023-6-04T05:54:13Z
2023-06-04T03:55:03Z,42.805,6.029,13.3067,4.60121,2470.693,2023-6-04T05:57:16Z
2023-06-04T03:58:06Z,42.805,6.029,13.3078,4.60114,2470.707,2023-6-04T06:00:19Z
2023-06-04T04:01:09Z,42.805,6.029,13.3101,4.60107,2470.693,2023-6-04T06:03:23Z
2023-06-04T04:04:12Z,42.805,6.029,13.3082,4.60102,2470.717,2023-6-04T06:06:26Z
2023-06-04T04:07:15Z,42.805,6.029,13.3078,4.60095,2470.73,2023-6-04T06:09:29Z
2023-06-04T04:10:19Z,42.805,6.029,13.3038,4.60142,2470.717,2023-6-04T06:12:32Z
2023-06-04T04:13:22Z,42.805,6.029,13.3058,4.60122,2470.73,2023-6-04T06:15:35Z
2023-06-04T04:16:25Z,42.805,6.029,13.3056,4.60128,2470.717,2023-6-04T06:18:38Z
2023-06-04T04:19:28Z,42.805,6.029,13.3098,4.60137,2470.717,2023-6-04T06:21:41Z
2023-06-04T04:22:31Z,42.805,6.029,13.3079,4.60119,2470.693,2023-6-04T06:24:44Z
2023-06-04T04:25:34Z,42.805,6.029,13.3085,4.60121,2470.73,2023-6-04T06:27:47Z
2023-06-04T04:28:37Z,42.805,6.029,13.3081,4.60110,2470.73,2023-6-04T06:30:50Z
2023-06-04T04:31:40Z,42.805,6.029,13.3067,4.60097,2470.73,2023-6-04T06:33:53Z
2023-06-04T04:34:43Z,42.805,6.029,13.3073,4.60128,2470.754,2023-6-04T06:36:56Z
2023-06-04T04:37:46Z,42.805,6.029,13.3073,4.60110,2470.717,2023-6-04T06:39:59Z
2023-06-04T04:40:49Z,42.805,6.029,13.3068,4.60106,2470.754,2023-6-04T06:43:03Z
2023-06-04T04:43:52Z,42.805,6.029,13.3070,4.60096,2470.763,2023-6-04T06:46:06Z
2023-06-04T04:46:56Z,42.805,6.029,13.3074,4.60104,2470.74,2023-6-04T06:49:09Z
2023-06-04T04:49:59Z,42.805,6.029,13.3070,4.60119,2470.754,2023-6-04T06:52:12Z
2023-06-04T04:53:02Z,42.805,6.029,13.3076,4.60109,2470.754,2023-6-04T06:55:15Z
2023-06-04T04:56:05Z,42.805,6.029,13.3081,4.60104,2470.754,2023-6-04T06:58:18Z
2023-06-04T04:59:08Z,42.805,6.029,13.3063,4.60101,2470.777,2023-6-04T07:01:21Z
2023-06-04T05:02:11Z,42.805,6.029,13.3091,4.60117,2470.754,2023-6-04T07:04:24Z
2023-06-04T05:05:14Z,42.805,6.029,13.3091,4.60112,2470.777,2023-6-04T07:07:27Z
2023-06-04T05:08:17Z,42.805,6.029,13.3069,4.60109,2470.777,2023-6-04T07:10:30Z
2023-06-04T05:11:20Z,42.805,6.029,13.3070,4.60126,2470.74,2023-6-04T07:13:33Z
2023-06-04T05:14:23Z,42.805,6.029,13.3085,4.60104,2470.754,2023-6-04T07:16:36Z
2023-06-04T05:17:26Z,42.805,6.029,13.3084,4.60131,2470.763,2023-6-04T07:19:39Z
2023-06-04T05:20:29Z,42.805,6.029,13.3078,4.60120,2470.754,2023-6-04T07:22:43Z
2023-06-04T05:23:32Z,42.805,6.029,13.3075,4.60109,2470.777,2023-6-04T07:25:46Z
2023-06-04T05:26:36Z,42.805,6.029,13.3071,4.60114,2470.763,2023-6-04T07:28:49Z
2023-06-04T05:29:39Z,42.805,6.029,13.3080,4.60114,2470.777,2023-6-04T07:31:52Z
2023-06-04T05:32:42Z,42.805,6.029,13.3052,4.60132,2470.754,2023-6-04T07:34:55Z
2023-06-04T05:35:45Z,42.805,6.029,13.3067,4.60125,2470.763,2023-6-04T07:37:58Z
2023-06-04T05:38:48Z,42.805,6.029,13.3063,4.60114,2470.777,2023-6-04T07:41:01Z
2023-06-04T05:41:51Z,42.805,6.029,13.3085,4.60109,2470.777,2023-6-04T07:44:04Z
2023-06-04T05:44:54Z,42.805,6.029,13.3085,4.60104,2470.777,2023-6-04T07:47:07Z
2023-06-04T05:47:57Z,42.805,6.029,13.3078,4.60107,2470.763,2023-6-04T07:50:10Z
2023-06-04T05:51:00Z,42.805,6.029,13.3078,4.60118,2470.787,2023-6-04T07:53:13Z
2023-06-04T05:54:03Z,42.805,6.029,13.3076,4.60135,2470.777,2023-6-04T07:56:16Z
2023-06-04T05:57:06Z,42.805,6.029,13.3088,4.60113,2470.787,2023-6-04T07:59:20Z
2023-06-04T06:00:09Z,42.805,6.029,13.3076,4.60112,2470.81,2023-6-04T08:02:23Z
2023-06-04T06:03:13Z,42.805,6.029,13.3070,4.60137,2470.763,2023-6-04T08:05:26Z
2023-06-04T06:06:16Z,42.805,6.029,13.3076,4.60104,2470.824,2023-6-04T08:08:29Z
2023-06-04T06:09:19Z,42.805,6.029,13.3067,4.60102,2470.8,2023-6-04T08:11:32Z
2023-06-04T06:12:22Z,42.805,6.029,13.3071,4.60131,2470.777,2023-6-04T08:14:35Z
2023-06-04T06:15:25Z,42.805,6.029,13.3066,4.60127,2470.8,2023-6-04T08:17:38Z
2023-06-04T06:18:28Z,42.805,6.029,13.3067,4.60104,2470.787,2023-6-04T08:20:41Z
2023-06-04T06:21:31Z,42.805,6.029,13.3062,4.60114,2470.824,2023-6-04T08:23:44Z
2023-06-04T06:24:34Z,42.805,6.029,13.3069,4.60110,2470.763,2023-6-04T08:26:47Z
2023-06-04T06:27:37Z,42.805,6.029,13.3071,4.60148,2470.763,2023-6-04T08:29:50Z
2023-06-04T06:30:38Z,42.805,6.029,13.3074,4.60129,2470.763,2023-6-04T08:32:51Z
2023-06-04T06:33:41Z,42.805,6.029,13.3079,4.60138,2470.763,2023-6-04T08:35:55Z
2023-06-04T06:36:44Z,42.805,6.029,13.3064,4.60119,2470.8,2023-6-04T08:38:58Z
2023-06-04T06:39:47Z,42.805,6.029,13.3054,4.60132,2470.763,2023-6-04T08:42:01Z
2023-06-04T06:42:51Z,42.805,6.029,13.3078,4.60110,2470.787,2023-6-04T08:45:04Z
2023-06-04T06:45:54Z,42.805,6.029,13.3065,4.60107,2470.787,2023-6-04T08:48:07Z
2023-06-04T06:48:57Z,42.805,6.029,13.3066,4.60122,2470.787,2023-6-04T08:51:10Z
2023-06-04T06:52:00Z,42.805,6.029,13.3063,4.60135,2470.777,2023-6-04T08:54:13Z
2023-06-04T06:55:03Z,42.805,6.029,13.3081,4.60135,2470.824,2023-6-04T08:57:16Z
2023-06-04T06:58:06Z,42.805,6.029,13.3067,4.60121,2470.8,2023-6-04T09:00:19Z
2023-06-04T07:01:09Z,42.805,6.029,13.3069,4.60125,2470.787,2023-6-04T09:03:22Z
2023-06-04T07:04:12Z,42.805,6.029,13.3070,4.60144,2470.824,2023-6-04T09:06:25Z
2023-06-04T07:07:15Z,42.805,6.029,13.3086,4.60121,2470.8,2023-6-04T09:09:28Z
2023-06-04T07:10:18Z,42.805,6.029,13.3092,4.60112,2470.787,2023-6-04T09:12:31Z
2023-06-04T07:13:21Z,42.805,6.029,13.3098,4.60129,2470.8,2023-6-04T09:15:35Z
2023-06-04T07:16:24Z,42.805,6.029,13.3085,4.60140,2470.763,2023-6-04T09:18:38Z
2023-06-04T07:19:27Z,42.805,6.029,13.3100,4.60112,2470.763,2023-6-04T09:21:41Z
2023-06-04T07:22:31Z,42.805,6.029,13.3084,4.60127,2470.8,2023-6-04T09:24:44Z
2023-06-04T07:25:34Z,42.805,6.029,13.3074,4.60114,2470.8,2023-6-04T09:27:47Z
2023-06-04T07:28:37Z,42.805,6.029,13.3078,4.60114,2470.787,2023-6-04T09:30:50Z
2023-06-04T07:31:40Z,42.805,6.029,13.3108,4.60111,2470.787,2023-6-04T09:33:53Z
2023-06-04T07:34:43Z,42.805,6.029,13.3078,4.60109,2470.787,2023-6-04T09:36:56Z
2023-06-04T07:37:46Z,42.805,6.029,13.3063,4.60119,2470.763,2023-6-04T09:39:59Z
2023-06-04T07:40:49Z,42.805,6.029,13.3076,4.60110,2470.777,2023-6-04T09:43:02Z
2023-06-04T07:43:52Z,42.805,6.029,13.3091,4.60107,2470.787,2023-6-04T09:46:05Z
2023-06-04T07:46:55Z,42.805,6.029,13.3087,4.60107,2470.787,2023-6-04T09:49:08Z
2023-06-04T07:49:58Z,42.805,6.029,13.3101,4.60110,2470.763,2023-6-04T09:52:11Z
2023-06-04T07:53:01Z,42.805,6.029,13.3069,4.60111,2470.754,2023-6-04T09:55:15Z
2023-06-04T07:56:04Z,42.805,6.029,13.3073,4.60116,2470.787,2023-6-04T09:58:18Z
2023-06-04T07:59:07Z,42.805,6.029,13.3073,4.60112,2470.777,2023-6-04T10:01:21Z
2023-06-04T08:02:11Z,42.805,6.029,13.3084,4.60108,2470.81,2023-6-04T10:04:24Z
2023-06-04T08:05:14Z,42.805,6.029,13.3089,4.60111,2470.787,2023-6-04T10:07:27Z
2023-06-04T08:08:17Z,42.805,6.029,13.3053,4.60116,2470.787,2023-6-04T10:10:30Z
2023-06-04T08:11:20Z,42.805,6.029,13.3077,4.60126,2470.777,2023-6-04T10:13:33Z
2023-06-04T08:14:23Z,42.805,6.029,13.3094,4.60125,2470.763,2023-6-04T10:16:36Z
2023-06-04T08:17:26Z,42.805,6.029,13.3087,4.60132,2470.777,2023-6-04T10:19:39Z
2023-06-04T08:20:29Z,42.805,6.029,13.3089,4.60116,2470.717,2023-6-04T10:22:42Z
2023-06-04T08:23:32Z,42.805,6.029,13.3086,4.60122,2470.73,2023-6-04T10:25:45Z
2023-06-04T08:26:35Z,42.805,6.029,13.3073,4.60123,2470.74,2023-6-04T10:28:48Z
2023-06-04T08:29:38Z,42.805,6.029,13.3076,4.60110,2470.754,2023-6-04T10:31:51Z
2023-06-04T08:32:41Z,42.805,6.029,13.3084,4.60119,2470.763,2023-6-04T10:34:55Z
2023-06-04T08:35:44Z,42.805,6.029,13.3088,4.60114,2470.754,2023-6-04T10:37:58Z
2023-06-04T08:38:48Z,42.805,6.029,13.3093,4.60114,2470.763,2023-6-04T10:41:01Z
2023-06-04T08:41:51Z,42.805,6.029,13.3078,4.60120,2470.754,2023-6-04T10:44:04Z
2023-06-04T08:44:54Z,42.805,6.029,13.3062,4.60120,2470.74,2023-6-04T10:47:07Z
2023-06-04T08:47:57Z,42.805,6.029,13.3082,4.60106,2470.777,2023-6-04T10:50:10Z
2023-06-04T08:51:00Z,42.805,6.029,13.3081,4.60112,2470.754,2023-6-04T10:53:13Z
2023-06-04T08:54:03Z,42.805,6.029,13.3091,4.60126,2470.693,2023-6-04T10:56:16Z
2023-06-04T08:57:06Z,42.805,6.029,13.3090,4.60121,2470.74,2023-6-04T10:59:19Z
2023-06-04T09:00:09Z,42.805,6.029,13.3076,4.60122,2470.754,2023-6-04T11:02:22Z
2023-06-04T09:03:12Z,42.805,6.029,13.3063,4.60115,2470.73,2023-6-04T11:05:25Z
2023-06-04T09:06:15Z,42.805,6.029,13.3085,4.60113,2470.74,2023-6-04T11:08:28Z
2023-06-04T09:09:18Z,42.805,6.029,13.3070,4.60109,2470.754,2023-6-04T11:11:32Z
2023-06-04T09:12:21Z,42.805,6.029,13.3080,4.60102,2470.74,2023-6-04T11:14:35Z
2023-06-04T09:15:25Z,42.805,6.029,13.3089,4.60111,2470.73,2023-6-04T11:17:38Z
2023-06-04T09:18:28Z,42.805,6.029,13.3061,4.60099,2470.73,2023-6-04T11:20:41Z
2023-06-04T09:21:31Z,42.805,6.029,13.3067,4.60114,2470.754,2023-6-04T11:23:44Z
2023-06-04T09:24:34Z,42.805,6.029,13.3068,4.60107,2470.707,2023-6-04T11:26:47Z
2023-06-04T09:27:37Z,42.805,6.029,13.3088,4.60128,2470.777,2023-6-04T11:29:50Z
2023-06-04T09:30:40Z,42.805,6.029,13.3081,4.60127,2470.754,2023-6-04T11:32:53Z
2023-06-04T09:33:43Z,42.805,6.029,13.3078,4.60114,2470.74,2023-6-04T11:35:56Z
2023-06-04T09:36:46Z,42.805,6.029,13.3089,4.60119,2470.707,2023-6-04T11:38:59Z
2023-06-04T09:39:49Z,42.805,6.029,13.3090,4.60113,2470.693,2023-6-04T11:42:02Z
2023-06-04T09:42:52Z,42.805,6.029,13.3082,4.60106,2470.707,2023-6-04T11:45:05Z
2023-06-04T09:45:55Z,42.805,6.029,13.3071,4.60115,2470.707,2023-6-04T11:48:08Z
2023-06-04T09:48:58Z,42.805,6.029,13.3070,4.60130,2470.707,2023-6-04T11:51:12Z
2023-06-04T09:52:01Z,42.805,6.029,13.3058,4.60107,2470.717,2023-6-04T11:54:15Z
2023-06-04T09:55:05Z,42.805,6.029,13.3064,4.60117,2470.693,2023-6-04T11:57:18Z
2023-06-04T09:58:08Z,42.805,6.029,13.3067,4.60125,2470.73,2023-6-04T12:00:21Z
2023-06-04T10:01:11Z,42.805,6.029,13.3101,4.60152,2470.693,2023-6-04T12:03:24Z
2023-06-04T10:04:14Z,42.805,6.029,13.3089,4.60104,2470.67,2023-6-04T12:06:27Z
2023-06-04T10:07:17Z,42.805,6.029,13.3073,4.60122,2470.707,2023-6-04T12:09:30Z
2023-06-04T10:10:20Z,42.805,6.029,13.3082,4.60117,2470.684,2023-6-04T12:12:33Z
2023-06-04T10:13:23Z,42.805,6.029,13.3078,4.60132,2470.684,2023-6-04T12:15:36Z
2023-06-04T10:16:26Z,42.805,6.029,13.3098,4.60117,2470.661,2023-6-04T12:18:39Z
2023-06-04T10:19:29Z,42.805,6.029,13.3091,4.60109,2470.684,2023-6-04T12:21:42Z
2023-06-04T10:22:32Z,42.805,6.029,13.3076,4.60131,2470.67,2023-6-04T12:24:45Z
2023-06-04T10:25:35Z,42.805,6.029,13.3077,4.60133,2470.707,2023-6-04T12:27:49Z
2023-06-04T10:28:38Z,42.805,6.029,13.3089,4.60125,2470.693,2023-6-04T12:30:52Z
2023-06-04T10:31:42Z,42.805,6.029,13.3098,4.60122,2470.67,2023-6-04T12:33:55Z
2023-06-04T10:34:45Z,42.805,6.029,13.3096,4.60104,2470.684,2023-6-04T12:36:58Z
2023-06-04T10:37:48Z,42.805,6.029,13.3099,4.60110,2470.624,2023-6-04T12:40:01Z
2023-06-04T10:40:51Z,42.805,6.029,13.3101,4.60111,2470.646,2023-6-04T12:43:04Z
2023-06-04T10:43:54Z,42.805,6.029,13.3120,4.60119,2470.646,2023-6-04T12:46:07Z
2023-06-04T10:46:57Z,42.805,6.029,13.3102,4.60138,2470.684,2023-6-04T12:49:10Z
2023-06-04T10:50:00Z,42.805,6.029,13.3096,4.60122,2470.684,2023-6-04T12:52:13Z
2023-06-04T10:53:03Z,42.805,6.029,13.3099,4.60106,2470.646,2023-6-04T12:55:16Z
2023-06-04T10:56:06Z,42.805,6.029,13.3101,4.60113,2470.646,2023-6-04T12:58:19Z
2023-06-04T10:59:09Z,42.805,6.029,13.3099,4.60108,2470.646,2023-6-04T13:01:22Z
2023-06-04T11:02:12Z,42.805,6.029,13.3096,4.60125,2470.624,2023-6-04T13:04:25Z
2023-06-04T11:05:15Z,42.805,6.029,13.3096,4.60131,2470.67,2023-6-04T13:07:29Z
2023-06-04T11:08:18Z,42.805,6.029,13.3089,4.60125,2470.67,2023-6-04T13:10:32Z
2023-06-04T11:11:22Z,42.805,6.029,13.3098,4.60111,2470.661,2023-6-04T13:13:35Z
2023-06-04T11:14:25Z,42.805,6.029,13.3103,4.60110,2470.684,2023-6-04T13:16:38Z
2023-06-04T11:17:28Z,42.805,6.029,13.3100,4.60119,2470.637,2023-6-04T13:19:41Z
2023-06-04T11:20:31Z,42.805,6.029,13.3101,4.60111,2470.624,2023-6-04T13:22:44Z
2023-06-04T11:23:34Z,42.805,6.029,13.3108,4.60127,2470.577,2023-6-04T13:25:47Z
2023-06-04T11:26:37Z,42.805,6.029,13.3096,4.60114,2470.67,2023-6-04T13:28:50Z
2023-06-04T11:29:40Z,42.805,6.029,13.3102,4.60125,2470.661,2023-6-04T13:31:53Z
2023-06-04T11:32:43Z,42.805,6.029,13.3093,4.60110,2470.624,2023-6-04T13:34:56Z
2023-06-04T11:35:46Z,42.805,6.029,13.3105,4.60110,2470.637,2023-6-04T13:37:59Z
2023-06-04T11:38:49Z,42.805,6.029,13.3113,4.60128,2470.637,2023-6-04T13:41:03Z
2023-06-04T11:41:52Z,42.805,6.029,13.3095,4.60127,2470.614,2023-6-04T13:44:06Z
2023-06-04T11:44:55Z,42.805,6.029,13.3090,4.60115,2470.661,2023-6-04T13:47:09Z
2023-06-04T11:47:59Z,42.805,6.029,13.3091,4.60125,2470.646,2023-6-04T13:50:12Z
2023-06-04T11:51:02Z,42.805,6.029,13.3090,4.60112,2470.614,2023-6-04T13:53:15Z
2023-06-04T11:54:05Z,42.805,6.029,13.3082,4.60109,2470.614,2023-6-04T13:56:18Z
2023-06-04T11:57:08Z,42.805,6.029,13.3089,4.60128,2470.6,2023-6-04T13:59:21Z
2023-06-04T12:00:11Z,42.805,6.029,13.3096,4.60125,2470.624,2023-6-04T14:02:24Z
2023-06-04T12:03:14Z,42.805,6.029,13.3094,4.60106,2470.646,2023-6-04T14:05:27Z
2023-06-04T12:06:17Z,42.805,6.029,13.3084,4.60113,2470.624,2023-6-04T14:08:30Z
2023-06-04T12:09:20Z,42.805,6.029,13.3097,4.60114,2470.624,2023-6-04T14:11:34Z
2023-06-04T12:12:23Z,42.805,6.029,13.3091,4.60132,2470.637,2023-6-04T14:14:37Z
2023-06-04T12:15:27Z,42.805,6.029,13.3084,4.60125,2470.637,2023-6-04T14:17:40Z
2023-06-04T12:18:30Z,42.805,6.029,13.3084,4.60127,2470.614,2023-6-04T14:20:43Z
2023-06-04T12:21:33Z,42.805,6.029,13.3093,4.60117,2470.624,2023-6-04T14:23:46Z
2023-06-04T12:24:36Z,42.805,6.029,13.3083,4.60102,2470.614,2023-6-04T14:26:49Z
2023-06-04T12:27:39Z,42.805,6.029,13.3085,4.60116,2470.586,2023-6-04T14:29:52Z
2023-06-04T12:30:44Z,42.805,6.029,13.3073,4.60104,2470.614,2023-6-04T14:32:57Z
2023-06-04T12:33:47Z,42.805,6.029,13.3068,4.60104,2470.614,2023-6-04T14:36:00Z
2023-06-04T12:36:50Z,42.805,6.029,13.3070,4.60099,2470.624,2023-6-04T14:39:03Z
2023-06-04T12:39:53Z,42.805,6.029,13.3073,4.60109,2470.6,2023-6-04T14:42:06Z
2023-06-04T12:42:56Z,42.805,6.029,13.3072,4.60122,2470.614,2023-6-04T14:45:09Z
2023-06-04T12:45:59Z,42.805,6.029,13.3072,4.60115,2470.614,2023-6-04T14:48:12Z
2023-06-04T12:49:02Z,42.805,6.029,13.3089,4.60106,2470.6,2023-6-04T14:51:15Z
2023-06-04T12:52:05Z,42.805,6.029,13.3108,4.60112,2470.591,2023-6-04T14:54:18Z
2023-06-04T12:55:08Z,42.805,6.029,13.3099,4.60132,2470.646,2023-6-04T14:57:21Z
2023-06-04T12:58:11Z,42.805,6.029,13.3080,4.60112,2470.577,2023-6-04T15:00:25Z
2023-06-04T13:01:14Z,42.805,6.029,13.3082,4.60117,2470.614,2023-6-04T15:03:28Z
2023-06-04T13:04:17Z,42.805,6.029,13.3084,4.60133,2470.577,2023-6-04T15:06:31Z
2023-06-04T13:07:21Z,42.805,6.029,13.3092,4.60128,2470.614,2023-6-04T15:09:34Z
2023-06-04T13:10:24Z,42.805,6.029,13.3093,4.60110,2470.6,2023-6-04T15:12:37Z
2023-06-04T13:13:27Z,42.805,6.029,13.3084,4.60108,2470.591,2023-6-04T15:15:40Z
2023-06-04T13:16:30Z,42.805,6.029,13.3072,4.60114,2470.6,2023-6-04T15:18:43Z
2023-06-04T13:19:33Z,42.805,6.029,13.3078,4.60102,2470.6,2023-6-04T15:21:46Z
2023-06-04T13:22:36Z,42.805,6.029,13.3077,4.60107,2470.6,2023-6-04T15:24:49Z
2023-06-04T13:25:39Z,42.805,6.029,13.3072,4.60112,2470.614,2023-6-04T15:27:52Z
2023-06-04T13:28:42Z,42.805,6.029,13.3073,4.60109,2470.614,2023-6-04T15:30:55Z
2023-06-04T13:31:45Z,42.805,6.029,13.3069,4.60097,2470.577,2023-6-04T15:33:58Z
2023-06-04T13:34:48Z,42.805,6.029,13.3076,4.60108,2470.614,2023-6-04T15:37:02Z
2023-06-04T13:37:51Z,42.805,6.029,13.3061,4.60097,2470.637,2023-6-04T15:40:05Z
2023-06-04T13:40:54Z,42.805,6.029,13.3080,4.60116,2470.624,2023-6-04T15:43:08Z
2023-06-04T13:43:58Z,42.805,6.029,13.3052,4.60120,2470.614,2023-6-04T15:46:11Z
2023-06-04T13:47:01Z,42.805,6.029,13.3061,4.60110,2470.577,2023-6-04T15:49:14Z
2023-06-04T13:50:04Z,42.805,6.029,13.3055,4.60114,2470.637,2023-6-04T15:52:17Z
2023-06-04T13:53:07Z,42.805,6.029,13.3076,4.60127,2470.577,2023-6-04T15:55:20Z
2023-06-04T13:56:10Z,42.805,6.029,13.3067,4.60122,2470.567,2023-6-04T15:58:23Z
2023-06-04T13:59:13Z,42.805,6.029,13.3083,4.60113,2470.591,2023-6-04T16:01:26Z
2023-06-04T14:02:16Z,42.805,6.029,13.3073,4.60107,2470.637,2023-6-04T16:04:29Z
2023-06-04T14:05:19Z,42.805,6.029,13.3082,4.60111,2470.6,2023-6-04T16:07:32Z
2023-06-04T14:08:22Z,42.805,6.029,13.3078,4.60102,2470.553,2023-6-04T16:10:35Z
2023-06-04T14:11:25Z,42.805,6.029,13.3065,4.60112,2470.614,2023-6-04T16:13:38Z
2023-06-04T14:14:28Z,42.805,6.029,13.3065,4.60114,2470.6,2023-6-04T16:16:42Z
2023-06-04T14:17:31Z,42.805,6.029,13.3081,4.60119,2470.614,2023-6-04T16:19:45Z
2023-06-04T14:20:35Z,42.805,6.029,13.3077,4.60115,2470.637,2023-6-04T16:22:48Z
2023-06-04T14:23:38Z,42.805,6.029,13.3082,4.60115,2470.6,2023-6-04T16:25:51Z
2023-06-04T14:26:41Z,42.805,6.029,13.3076,4.60113,2470.614,2023-6-04T16:28:54Z
2023-06-04T14:29:44Z,42.805,6.029,13.3072,4.60110,2470.591,2023-6-04T16:31:57Z
2023-06-04T14:32:46Z,42.805,6.029,13.3083,4.60122,2470.637,2023-6-04T16:35:00Z
2023-06-04T14:35:50Z,42.805,6.029,13.3087,4.60119,2470.614,2023-6-04T16:38:03Z
2023-06-04T14:38:53Z,42.805,6.029,13.3087,4.60123,2470.624,2023-6-04T16:41:06Z
2023-06-04T14:41:56Z,42.805,6.029,13.3093,4.60119,2470.624,2023-6-04T16:44:09Z
2023-06-04T14:44:59Z,42.805,6.029,13.3068,4.60109,2470.624,2023-6-04T16:47:12Z
2023-06-04T14:48:02Z,42.805,6.029,13.3067,4.60103,2470.614,2023-6-04T16:50:15Z
2023-06-04T14:51:05Z,42.805,6.029,13.3075,4.60112,2470.624,2023-6-04T16:53:18Z
2023-06-04T14:54:08Z,42.805,6.029,13.3078,4.60112,2470.624,2023-6-04T16:56:21Z
2023-06-04T14:57:11Z,42.805,6.029,13.3065,4.60123,2470.646,2023-6-04T16:59:24Z
2023-06-04T15:00:14Z,42.805,6.029,13.3082,4.60117,2470.624,2023-6-04T17:02:27Z
2023-06-04T15:03:17Z,42.805,6.029,13.3069,4.60117,2470.6,2023-6-04T17:05:31Z
2023-06-04T15:06:20Z,42.805,6.029,13.3069,4.60102,2470.637,2023-6-04T17:08:34Z
2023-06-04T15:09:23Z,42.805,6.029,13.3079,4.60110,2470.646,2023-6-04T17:11:37Z